BHUTAN-1 (43591 NORAD) Tracking and Keplerian Element Data

This shows tracking and keplerian element data for the satellite.

Feedback or suggestion? Click here.




ElementValue
Catalog43591
NameBHUTAN-1
Epoch Orbit13039
Epoch Day323.57107911
Epoch Year2020
RAAN198.6835
Inclination51.6155
Eccentricity0.0005882
Argument of Perigee255.3071
Mean Anonmoly104.7305
Mean Motion16.44501217
Decay Rate0.11695971
L11 43591U 98067PF 20323.57107911 .11695971 12499-4 37838-3 0 9993
L22 43591 51.6155 198.6835 0005882 255.3071 104.7305 16.44501217130390



Live tracking and technical data element details for BHUTAN-1 (NORAD 43591). BHUTAN-1 can be tracked NOW for your location showing map with azimuth and elevation plus other details from your city location.







IsCatalogInMostPopularTable: catalog: 43591, numindb: 517
Update: records affected: 1



GetName: 43591 BHUTAN-1

Hit Count: updated at: Thu, 23 Jan 2025 16:37:47 GMT